owner,sensor,date,latitude,longitude,relative_humidity,qcFlag 
COMPS,ioos:station:USF.COMPS:C13:1,2013-12-05T15:05:00Z,26.0630,-83.0730,85.16,1111122 
COMPS,ioos:station:USF.COMPS:C13:1,2013-12-05T15:35:00Z,26.0630,-83.0730,85.72,1111122 
COMPS,ioos:station:USF.COMPS:C13:1,2013-12-05T16:05:00Z,26.0630,-83.0730,85.54,1111122 
COMPS,ioos:station:USF.COMPS:C13:1,2013-12-05T16:35:00Z,26.0630,-83.0730,85.1,1111122 
COMPS,ioos:station:USF.COMPS:C13:1,2013-12-05T17:05:00Z,26.0630,-83.0730,85.2,1111122 
COMPS,ioos:station:USF.COMPS:C13:1,2013-12-05T17:35:00Z,26.0630,-83.0730,86.0,1111122 
COMPS,ioos:station:USF.COMPS:C13:1,2013-12-05T18:05:00Z,26.0630,-83.0730,85.63,1111122 
COMPS,ioos:station:USF.COMPS:C13:1,2013-12-05T18:35:00Z,26.0630,-83.0730,86.27,1111122 
COMPS,ioos:station:USF.COMPS:C13:1,2013-12-05T19:05:00Z,26.0630,-83.0730,85.81,1111122 
COMPS,ioos:station:USF.COMPS:C13:1,2013-12-05T19:35:00Z,26.0630,-83.0730,86.36,1111122 
COMPS,ioos:station:USF.COMPS:C13:1,2013-12-05T20:05:00Z,26.0630,-83.0730,86.21,1111122 
COMPS,ioos:station:USF.COMPS:C13:1,2013-12-05T20:35:00Z,26.0630,-83.0730,86.01,1111122 
COMPS,ioos:station:USF.COMPS:C13:1,2013-12-05T21:05:00Z,26.0630,-83.0730,85.82,1111122 
COMPS,ioos:station:USF.COMPS:C13:1,2013-12-05T21:35:00Z,26.0630,-83.0730,84.61,1111122 
COMPS,ioos:station:USF.COMPS:C13:1,2013-12-05T22:05:00Z,26.0630,-83.0730,83.39,1111122 
COMPS,ioos:station:USF.COMPS:C13:1,2013-12-05T22:35:00Z,26.0630,-83.0730,83.63,1111122 
COMPS,ioos:station:USF.COMPS:C13:1,2013-12-05T23:05:00Z,26.0630,-83.0730,84.35,1111122 
COMPS,ioos:station:USF.COMPS:C13:1,2013-12-05T23:35:00Z,26.0630,-83.0730,83.51,1111122 
COMPS,ioos:station:USF.COMPS:C13:1,2013-12-12T17:05:00Z,26.0630,-83.0730,90.05,1111122 
COMPS,ioos:station:USF.COMPS:C13:1,2013-12-12T17:35:00Z,26.0630,-83.0730,89.69,1111122 
COMPS,ioos:station:USF.COMPS:C13:1,2013-12-12T18:05:00Z,26.0630,-83.0730,89.78,1111122 
COMPS,ioos:station:USF.COMPS:C13:1,2013-12-12T18:35:00Z,26.0630,-83.0730,88.31,1111122 
COMPS,ioos:station:USF.COMPS:C13:1,2013-12-12T19:05:00Z,26.0630,-83.0730,88.18,1111122 
COMPS,ioos:station:USF.COMPS:C13:1,2013-12-12T19:35:00Z,26.0630,-83.0730,87.63,1111122 
COMPS,ioos:station:USF.COMPS:C13:1,2013-12-12T20:05:00Z,26.0630,-83.0730,87.7,1111122 
COMPS,ioos:station:USF.COMPS:C13:1,2013-12-12T20:35:00Z,26.0630,-83.0730,88.54,1111122 
COMPS,ioos:station:USF.COMPS:C13:1,2013-12-12T21:05:00Z,26.0630,-83.0730,88.02,1111122 
COMPS,ioos:station:USF.COMPS:C13:1,2013-12-12T21:35:00Z,26.0630,-83.0730,87.58,1111122 
COMPS,ioos:station:USF.COMPS:C13:1,2013-12-12T22:05:00Z,26.0630,-83.0730,87.34,1111122 
COMPS,ioos:station:USF.COMPS:C13:1,2013-12-12T22:35:00Z,26.0630,-83.0730,83.75,1111122 
COMPS,ioos:station:USF.COMPS:C13:1,2013-12-12T23:05:00Z,26.0630,-83.0730,81.69,1111122 
COMPS,ioos:station:USF.COMPS:C13:1,2013-12-12T23:35:00Z,26.0630,-83.0730,81.42,1111122 
COMPS,ioos:station:USF.COMPS:C13:1,2013-12-13T00:05:00Z,26.0630,-83.0730,81.37,1111122 
COMPS,ioos:station:USF.COMPS:C13:1,2013-12-13T00:35:00Z,26.0630,-83.0730,78.51,1111122 
COMPS,ioos:station:USF.COMPS:C13:1,2013-12-13T01:05:00Z,26.0630,-83.0730,66.56,1111122 
COMPS,ioos:station:USF.COMPS:C13:1,2013-12-13T01:35:00Z,26.0630,-83.0730,60.41,1111122 
COMPS,ioos:station:USF.COMPS:C13:1,2013-12-13T02:05:00Z,26.0630,-83.0730,64.89,1111122 
COMPS,ioos:station:USF.COMPS:C13:1,2013-12-13T02:35:00Z,26.0630,-83.0730,73.41,1111122 
COMPS,ioos:station:USF.COMPS:C13:1,2013-12-13T03:05:00Z,26.0630,-83.0730,70.19,1111122 
COMPS,ioos:station:USF.COMPS:C13:1,2013-12-13T03:35:00Z,26.0630,-83.0730,68.35,1111122 
COMPS,ioos:station:USF.COMPS:C13:1,2013-12-13T04:05:00Z,26.0630,-83.0730,60.95,1111122 
COMPS,ioos:station:USF.COMPS:C13:1,2013-12-13T04:35:00Z,26.0630,-83.0730,62.48,1111122 
COMPS,ioos:station:USF.COMPS:C13:1,2013-12-13T05:05:00Z,26.0630,-83.0730,68.0,1111122 
COMPS,ioos:station:USF.COMPS:C13:1,2013-12-13T05:35:00Z,26.0630,-83.0730,67.99,1111122 
COMPS,ioos:station:USF.COMPS:C13:1,2013-12-13T06:05:00Z,26.0630,-83.0730,68.79,1111122 
COMPS,ioos:station:USF.COMPS:C13:1,2013-12-13T06:35:00Z,26.0630,-83.0730,72.06,1111122 
COMPS,ioos:station:USF.COMPS:C13:1,2013-12-13T07:05:00Z,26.0630,-83.0730,72.36,1111122 
COMPS,ioos:station:USF.COMPS:C13:1,2013-12-13T07:35:00Z,26.0630,-83.0730,72.26,1111122 
COMPS,ioos:station:USF.COMPS:C13:1,2013-12-13T08:05:00Z,26.0630,-83.0730,73.41,1111122 
COMPS,ioos:station:USF.COMPS:C13:1,2013-12-13T08:35:00Z,26.0630,-83.0730,74.64,1111122 
COMPS,ioos:station:USF.COMPS:C13:1,2013-12-13T09:05:00Z,26.0630,-83.0730,75.67,1111122 
COMPS,ioos:station:USF.COMPS:C13:1,2013-12-13T09:35:00Z,26.0630,-83.0730,77.52,1111122 
COMPS,ioos:station:USF.COMPS:C13:1,2013-12-13T10:05:00Z,26.0630,-83.0730,77.59,1111122 
COMPS,ioos:station:USF.COMPS:C13:1,2013-12-13T10:35:00Z,26.0630,-83.0730,77.31,1111122 
COMPS,ioos:station:USF.COMPS:C13:1,2013-12-13T11:05:00Z,26.0630,-83.0730,75.09,1111122 
COMPS,ioos:station:USF.COMPS:C13:1,2013-12-13T11:35:00Z,26.0630,-83.0730,76.44,1111122 
COMPS,ioos:station:USF.COMPS:C13:1,2013-12-13T12:05:00Z,26.0630,-83.0730,76.81,1111122 
COMPS,ioos:station:USF.COMPS:C13:1,2013-12-13T12:35:00Z,26.0630,-83.0730,75.64,1111122 
COMPS,ioos:station:USF.COMPS:C13:1,2013-12-13T13:05:00Z,26.0630,-83.0730,76.1,1111122 
COMPS,ioos:station:USF.COMPS:C13:1,2013-12-13T13:35:00Z,26.0630,-83.0730,77.0,1111122 
COMPS,ioos:station:USF.COMPS:C13:1,2013-12-13T14:05:00Z,26.0630,-83.0730,77.46,1111122 
COMPS,ioos:station:USF.COMPS:C13:1,2013-12-13T14:35:00Z,26.0630,-83.0730,77.35,1111122 
COMPS,ioos:station:USF.COMPS:C13:1,2013-12-13T15:05:00Z,26.0630,-83.0730,77.71,1111122 
COMPS,ioos:station:USF.COMPS:C13:1,2013-12-13T15:35:00Z,26.0630,-83.0730,77.03,1111122 
COMPS,ioos:station:USF.COMPS:C13:1,2013-12-13T16:05:00Z,26.0630,-83.0730,76.92,1111122 
COMPS,ioos:station:USF.COMPS:C13:1,2013-12-13T16:35:00Z,26.0630,-83.0730,77.24,1111122 
COMPS,ioos:station:USF.COMPS:C13:1,2013-12-13T17:05:00Z,26.0630,-83.0730,77.5,1111122 
COMPS,ioos:station:USF.COMPS:C13:1,2013-12-13T17:35:00Z,26.0630,-83.0730,78.14,1111122 
COMPS,ioos:station:USF.COMPS:C13:1,2013-12-13T18:05:00Z,26.0630,-83.0730,77.89,1111122 
COMPS,ioos:station:USF.COMPS:C13:1,2013-12-13T18:35:00Z,26.0630,-83.0730,77.79,1111122 
COMPS,ioos:station:USF.COMPS:C13:1,2013-12-13T19:05:00Z,26.0630,-83.0730,77.07,1111122 
COMPS,ioos:station:USF.COMPS:C13:1,2013-12-13T19:35:00Z,26.0630,-83.0730,76.29,1111122 
COMPS,ioos:station:USF.COMPS:C13:1,2013-12-13T20:05:00Z,26.0630,-83.0730,76.68,1111122 
COMPS,ioos:station:USF.COMPS:C13:1,2013-12-13T20:35:00Z,26.0630,-83.0730,75.41,1111122 
COMPS,ioos:station:USF.COMPS:C13:1,2013-12-13T21:05:00Z,26.0630,-83.0730,75.11,1111122 
COMPS,ioos:station:USF.COMPS:C13:1,2013-12-13T21:35:00Z,26.0630,-83.0730,73.73,1111122 
COMPS,ioos:station:USF.COMPS:C13:1,2013-12-13T22:05:00Z,26.0630,-83.0730,73.62,1111122 
COMPS,ioos:station:USF.COMPS:C13:1,2013-12-13T22:35:00Z,26.0630,-83.0730,73.77,1111122 
COMPS,ioos:station:USF.COMPS:C13:1,2013-12-13T23:05:00Z,26.0630,-83.0730,73.51,1111122 
COMPS,ioos:station:USF.COMPS:C13:1,2013-12-13T23:35:00Z,26.0630,-83.0730,74.33,1111122 
COMPS,ioos:station:USF.COMPS:C13:1,2013-12-14T00:05:00Z,26.0630,-83.0730,74.23,1111122 
COMPS,ioos:station:USF.COMPS:C13:1,2013-12-14T00:35:00Z,26.0630,-83.0730,73.78,1111122 
COMPS,ioos:station:USF.COMPS:C13:1,2013-12-14T01:05:00Z,26.0630,-83.0730,75.15,1111122 
COMPS,ioos:station:USF.COMPS:C13:1,2013-12-14T01:35:00Z,26.0630,-83.0730,76.5,1111122 
COMPS,ioos:station:USF.COMPS:C13:1,2013-12-14T02:05:00Z,26.0630,-83.0730,79.97,1111122 
COMPS,ioos:station:USF.COMPS:C13:1,2013-12-14T02:35:00Z,26.0630,-83.0730,83.1,1111122 
COMPS,ioos:station:USF.COMPS:C13:1,2013-12-14T03:05:00Z,26.0630,-83.0730,80.53,1111122 
COMPS,ioos:station:USF.COMPS:C13:1,2013-12-14T03:35:00Z,26.0630,-83.0730,83.03,1111122 
COMPS,ioos:station:USF.COMPS:C13:1,2013-12-14T04:05:00Z,26.0630,-83.0730,83.34,1111122 
COMPS,ioos:station:USF.COMPS:C13:1,2013-12-14T04:35:00Z,26.0630,-83.0730,83.81,1111122 
COMPS,ioos:station:USF.COMPS:C13:1,2013-12-14T05:05:00Z,26.0630,-83.0730,84.26,1111122 
COMPS,ioos:station:USF.COMPS:C13:1,2013-12-14T05:35:00Z,26.0630,-83.0730,84.66,1111122 
COMPS,ioos:station:USF.COMPS:C13:1,2013-12-14T06:05:00Z,26.0630,-83.0730,87.39,1111122 
COMPS,ioos:station:USF.COMPS:C13:1,2013-12-14T06:35:00Z,26.0630,-83.0730,86.6,1111122 
COMPS,ioos:station:USF.COMPS:C13:1,2013-12-14T07:05:00Z,26.0630,-83.0730,86.76,1111122 
COMPS,ioos:station:USF.COMPS:C13:1,2013-12-14T07:35:00Z,26.0630,-83.0730,87.52,1111122 
COMPS,ioos:station:USF.COMPS:C13:1,2013-12-14T08:05:00Z,26.0630,-83.0730,88.5,1111122 
COMPS,ioos:station:USF.COMPS:C13:1,2013-12-14T08:35:00Z,26.0630,-83.0730,88.91,1111122 
COMPS,ioos:station:USF.COMPS:C13:1,2013-12-14T09:05:00Z,26.0630,-83.0730,88.88,1111122 
COMPS,ioos:station:USF.COMPS:C13:1,2013-12-14T09:35:00Z,26.0630,-83.0730,89.24,1111122 
COMPS,ioos:station:USF.COMPS:C13:1,2013-12-14T10:05:00Z,26.0630,-83.0730,89.51,1111122 
COMPS,ioos:station:USF.COMPS:C13:1,2013-12-14T10:35:00Z,26.0630,-83.0730,89.87,1111122 
COMPS,ioos:station:USF.COMPS:C13:1,2013-12-14T11:05:00Z,26.0630,-83.0730,89.97,1111122 
COMPS,ioos:station:USF.COMPS:C13:1,2013-12-14T11:35:00Z,26.0630,-83.0730,90.46,1111122 
COMPS,ioos:station:USF.COMPS:C13:1,2013-12-14T12:05:00Z,26.0630,-83.0730,90.94,1111122 
COMPS,ioos:station:USF.COMPS:C13:1,2013-12-14T12:35:00Z,26.0630,-83.0730,91.43,1111122 
COMPS,ioos:station:USF.COMPS:C13:1,2013-12-14T13:05:00Z,26.0630,-83.0730,91.34,1111122 
COMPS,ioos:station:USF.COMPS:C13:1,2013-12-14T13:35:00Z,26.0630,-83.0730,90.17,1111122 
COMPS,ioos:station:USF.COMPS:C13:1,2013-12-14T14:05:00Z,26.0630,-83.0730,90.08,1111122 
COMPS,ioos:station:USF.COMPS:C13:1,2013-12-14T14:35:00Z,26.0630,-83.0730,90.36,1111122 
COMPS,ioos:station:USF.COMPS:C13:1,2013-12-14T15:05:00Z,26.0630,-83.0730,90.33,1111122 
COMPS,ioos:station:USF.COMPS:C13:1,2013-12-14T15:35:00Z,26.0630,-83.0730,90.14,1111122 
COMPS,ioos:station:USF.COMPS:C13:1,2013-12-18T18:05:00Z,26.0630,-83.0730,57.35,1111122 
COMPS,ioos:station:USF.COMPS:C13:1,2013-12-18T18:35:00Z,26.0630,-83.0730,48.28,1111122 
COMPS,ioos:station:USF.COMPS:C13:1,2013-12-18T19:05:00Z,26.0630,-83.0730,53.53,1111122 
COMPS,ioos:station:USF.COMPS:C13:1,2013-12-18T19:35:00Z,26.0630,-83.0730,54.17,1111122 
COMPS,ioos:station:USF.COMPS:C13:1,2013-12-18T20:05:00Z,26.0630,-83.0730,52.43,1111122 
COMPS,ioos:station:USF.COMPS:C13:1,2013-12-18T20:35:00Z,26.0630,-83.0730,54.8,1111122 
COMPS,ioos:station:USF.COMPS:C13:1,2013-12-18T21:05:00Z,26.0630,-83.0730,56.74,1111122 
COMPS,ioos:station:USF.COMPS:C13:1,2013-12-18T21:35:00Z,26.0630,-83.0730,59.05,1111122 
COMPS,ioos:station:USF.COMPS:C13:1,2013-12-18T22:05:00Z,26.0630,-83.0730,55.81,1111122 
COMPS,ioos:station:USF.COMPS:C13:1,2013-12-18T22:35:00Z,26.0630,-83.0730,58.82,1111122 
COMPS,ioos:station:USF.COMPS:C13:1,2013-12-18T23:05:00Z,26.0630,-83.0730,59.1,1111122 
COMPS,ioos:station:USF.COMPS:C13:1,2013-12-18T23:35:00Z,26.0630,-83.0730,59.27,1111122 
COMPS,ioos:station:USF.COMPS:C13:1,2013-12-19T00:05:00Z,26.0630,-83.0730,58.47,1111122 
COMPS,ioos:station:USF.COMPS:C13:1,2013-12-19T00:35:00Z,26.0630,-83.0730,56.6,1111122 
COMPS,ioos:station:USF.COMPS:C13:1,2013-12-19T01:05:00Z,26.0630,-83.0730,56.43,1111122 
COMPS,ioos:station:USF.COMPS:C13:1,2013-12-19T01:35:00Z,26.0630,-83.0730,56.78,1111122 
COMPS,ioos:station:USF.COMPS:C13:1,2013-12-19T02:05:00Z,26.0630,-83.0730,55.95,1111122 
COMPS,ioos:station:USF.COMPS:C13:1,2013-12-19T02:35:00Z,26.0630,-83.0730,57.37,1111122 
COMPS,ioos:station:USF.COMPS:C13:1,2013-12-19T03:05:00Z,26.0630,-83.0730,53.61,1111122 
COMPS,ioos:station:USF.COMPS:C13:1,2013-12-19T03:35:00Z,26.0630,-83.0730,52.79,1111122 
COMPS,ioos:station:USF.COMPS:C13:1,2013-12-19T04:05:00Z,26.0630,-83.0730,54.9,1111122 
COMPS,ioos:station:USF.COMPS:C13:1,2013-12-19T04:35:00Z,26.0630,-83.0730,53.59,1111122 
COMPS,ioos:station:USF.COMPS:C13:1,2013-12-19T05:05:00Z,26.0630,-83.0730,54.95,1111122 
COMPS,ioos:station:USF.COMPS:C13:1,2013-12-19T05:35:00Z,26.0630,-83.0730,56.05,1111122 
COMPS,ioos:station:USF.COMPS:C13:1,2013-12-19T06:05:00Z,26.0630,-83.0730,59.8,1111122 
COMPS,ioos:station:USF.COMPS:C13:1,2013-12-19T06:35:00Z,26.0630,-83.0730,63.72,1111122 
COMPS,ioos:station:USF.COMPS:C13:1,2013-12-19T07:05:00Z,26.0630,-83.0730,63.27,1111122 
COMPS,ioos:station:USF.COMPS:C13:1,2013-12-19T07:35:00Z,26.0630,-83.0730,62.49,1111122 
COMPS,ioos:station:USF.COMPS:C13:1,2013-12-19T08:05:00Z,26.0630,-83.0730,63.78,1111122 
COMPS,ioos:station:USF.COMPS:C13:1,2013-12-19T08:35:00Z,26.0630,-83.0730,65.02,1111122 
COMPS,ioos:station:USF.COMPS:C13:1,2013-12-19T09:05:00Z,26.0630,-83.0730,65.75,1111122 
COMPS,ioos:station:USF.COMPS:C13:1,2013-12-19T09:35:00Z,26.0630,-83.0730,66.52,1111122 
COMPS,ioos:station:USF.COMPS:C13:1,2013-12-19T10:05:00Z,26.0630,-83.0730,70.05,1111122 
COMPS,ioos:station:USF.COMPS:C13:1,2013-12-19T10:35:00Z,26.0630,-83.0730,69.21,1111122 
COMPS,ioos:station:USF.COMPS:C13:1,2013-12-19T11:05:00Z,26.0630,-83.0730,72.53,1111122 
COMPS,ioos:station:USF.COMPS:C13:1,2013-12-19T11:35:00Z,26.0630,-83.0730,75.78,1111122 
COMPS,ioos:station:USF.COMPS:C13:1,2013-12-19T12:05:00Z,26.0630,-83.0730,73.99,1111122 
COMPS,ioos:station:USF.COMPS:C13:1,2013-12-19T12:35:00Z,26.0630,-83.0730,74.49,1111122 
COMPS,ioos:station:USF.COMPS:C13:1,2013-12-19T13:05:00Z,26.0630,-83.0730,74.74,1111122 
COMPS,ioos:station:USF.COMPS:C13:1,2013-12-19T13:35:00Z,26.0630,-83.0730,74.3,1111122 
COMPS,ioos:station:USF.COMPS:C13:1,2013-12-19T14:05:00Z,26.0630,-83.0730,74.76,1111122 
COMPS,ioos:station:USF.COMPS:C13:1,2013-12-19T14:35:00Z,26.0630,-83.0730,75.88,1111122 
COMPS,ioos:station:USF.COMPS:C13:1,2013-12-19T15:05:00Z,26.0630,-83.0730,76.88,1111122 
COMPS,ioos:station:USF.COMPS:C13:1,2013-12-19T15:35:00Z,26.0630,-83.0730,78.12,1111122 
COMPS,ioos:station:USF.COMPS:C13:1,2013-12-19T16:05:00Z,26.0630,-83.0730,78.92,1111122 
COMPS,ioos:station:USF.COMPS:C13:1,2013-12-19T16:35:00Z,26.0630,-83.0730,77.48,1111122 
COMPS,ioos:station:USF.COMPS:C13:1,2013-12-19T17:05:00Z,26.0630,-83.0730,76.94,1111122 
COMPS,ioos:station:USF.COMPS:C13:1,2013-12-19T17:35:00Z,26.0630,-83.0730,78.29,1111122 
COMPS,ioos:station:USF.COMPS:C13:1,2013-12-19T18:05:00Z,26.0630,-83.0730,77.08,1111122 
COMPS,ioos:station:USF.COMPS:C13:1,2013-12-19T18:35:00Z,26.0630,-83.0730,75.08,1111122 
COMPS,ioos:station:USF.COMPS:C13:1,2013-12-19T19:05:00Z,26.0630,-83.0730,73.91,1111122 
COMPS,ioos:station:USF.COMPS:C13:1,2013-12-19T19:35:00Z,26.0630,-83.0730,74.83,1111122 
COMPS,ioos:station:USF.COMPS:C13:1,2013-12-19T20:05:00Z,26.0630,-83.0730,75.59,1111122 
COMPS,ioos:station:USF.COMPS:C13:1,2013-12-19T20:35:00Z,26.0630,-83.0730,75.34,1111122 
COMPS,ioos:station:USF.COMPS:C13:1,2013-12-19T21:05:00Z,26.0630,-83.0730,75.2,1111122 
COMPS,ioos:station:USF.COMPS:C13:1,2013-12-19T21:35:00Z,26.0630,-83.0730,73.71,1111122 
COMPS,ioos:station:USF.COMPS:C13:1,2013-12-19T22:05:00Z,26.0630,-83.0730,73.12,1111122 
COMPS,ioos:station:USF.COMPS:C13:1,2013-12-19T22:35:00Z,26.0630,-83.0730,72.33,1111122 
COMPS,ioos:station:USF.COMPS:C13:1,2013-12-19T23:05:00Z,26.0630,-83.0730,72.04,1111122 
COMPS,ioos:station:USF.COMPS:C13:1,2013-12-19T23:35:00Z,26.0630,-83.0730,72.42,1111122 
COMPS,ioos:station:USF.COMPS:C13:1,2013-12-20T00:05:00Z,26.0630,-83.0730,72.77,1111122 
COMPS,ioos:station:USF.COMPS:C13:1,2013-12-20T00:35:00Z,26.0630,-83.0730,72.49,1111122 
COMPS,ioos:station:USF.COMPS:C13:1,2013-12-20T01:05:00Z,26.0630,-83.0730,72.47,1111122 
COMPS,ioos:station:USF.COMPS:C13:1,2013-12-20T01:35:00Z,26.0630,-83.0730,73.33,1111122 
COMPS,ioos:station:USF.COMPS:C13:1,2013-12-20T02:05:00Z,26.0630,-83.0730,73.4,1111122 
COMPS,ioos:station:USF.COMPS:C13:1,2013-12-20T02:35:00Z,26.0630,-83.0730,75.24,1111122 
COMPS,ioos:station:USF.COMPS:C13:1,2013-12-20T03:05:00Z,26.0630,-83.0730,75.98,1111122 
COMPS,ioos:station:USF.COMPS:C13:1,2013-12-20T03:35:00Z,26.0630,-83.0730,77.09,1111122 
COMPS,ioos:station:USF.COMPS:C13:1,2013-12-20T04:05:00Z,26.0630,-83.0730,79.71,1111122 
COMPS,ioos:station:USF.COMPS:C13:1,2013-12-20T04:35:00Z,26.0630,-83.0730,80.67,1111122 
COMPS,ioos:station:USF.COMPS:C13:1,2013-12-20T05:05:00Z,26.0630,-83.0730,80.74,1111122 
COMPS,ioos:station:USF.COMPS:C13:1,2013-12-20T05:35:00Z,26.0630,-83.0730,78.46,1111122 
COMPS,ioos:station:USF.COMPS:C13:1,2013-12-20T06:05:00Z,26.0630,-83.0730,75.52,1111122 
COMPS,ioos:station:USF.COMPS:C13:1,2013-12-20T06:35:00Z,26.0630,-83.0730,76.04,1111122 
COMPS,ioos:station:USF.COMPS:C13:1,2013-12-20T07:05:00Z,26.0630,-83.0730,77.16,1111122 
COMPS,ioos:station:USF.COMPS:C13:1,2013-12-20T07:35:00Z,26.0630,-83.0730,77.98,1111122 
COMPS,ioos:station:USF.COMPS:C13:1,2013-12-20T08:05:00Z,26.0630,-83.0730,77.86,1111122 
COMPS,ioos:station:USF.COMPS:C13:1,2013-12-20T08:35:00Z,26.0630,-83.0730,79.54,1111122 
COMPS,ioos:station:USF.COMPS:C13:1,2013-12-20T09:05:00Z,26.0630,-83.0730,82.63,1111122 
COMPS,ioos:station:USF.COMPS:C13:1,2013-12-20T09:35:00Z,26.0630,-83.0730,82.62,1111122 
COMPS,ioos:station:USF.COMPS:C13:1,2013-12-20T10:05:00Z,26.0630,-83.0730,82.89,1111122 
COMPS,ioos:station:USF.COMPS:C13:1,2013-12-20T10:35:00Z,26.0630,-83.0730,83.5,1111122 
COMPS,ioos:station:USF.COMPS:C13:1,2013-12-20T11:05:00Z,26.0630,-83.0730,84.15,1111122 
COMPS,ioos:station:USF.COMPS:C13:1,2013-12-20T11:35:00Z,26.0630,-83.0730,85.02,1111122 
COMPS,ioos:station:USF.COMPS:C13:1,2013-12-20T12:05:00Z,26.0630,-83.0730,85.46,1111122 
COMPS,ioos:station:USF.COMPS:C13:1,2013-12-20T12:35:00Z,26.0630,-83.0730,85.73,1111122 
COMPS,ioos:station:USF.COMPS:C13:1,2013-12-20T13:05:00Z,26.0630,-83.0730,84.91,1111122 
COMPS,ioos:station:USF.COMPS:C13:1,2013-12-20T13:35:00Z,26.0630,-83.0730,84.92,1111122 
COMPS,ioos:station:USF.COMPS:C13:1,2013-12-20T14:05:00Z,26.0630,-83.0730,84.39,1111122 
COMPS,ioos:station:USF.COMPS:C13:1,2013-12-20T14:35:00Z,26.0630,-83.0730,84.14,1111122 
COMPS,ioos:station:USF.COMPS:C13:1,2013-12-20T15:05:00Z,26.0630,-83.0730,84.28,1111122 
COMPS,ioos:station:USF.COMPS:C13:1,2013-12-20T15:35:00Z,26.0630,-83.0730,84.89,1111122 
COMPS,ioos:station:USF.COMPS:C13:1,2013-12-20T16:05:00Z,26.0630,-83.0730,84.8,1111122 
COMPS,ioos:station:USF.COMPS:C13:1,2013-12-20T16:35:00Z,26.0630,-83.0730,85.72,1111122 
COMPS,ioos:station:USF.COMPS:C13:1,2013-12-20T17:05:00Z,26.0630,-83.0730,86.56,1111122 
COMPS,ioos:station:USF.COMPS:C13:1,2013-12-20T17:35:00Z,26.0630,-83.0730,86.94,1111122 
COMPS,ioos:station:USF.COMPS:C13:1,2013-12-20T18:05:00Z,26.0630,-83.0730,87.74,1111122 
COMPS,ioos:station:USF.COMPS:C13:1,2013-12-20T18:35:00Z,26.0630,-83.0730,87.79,1111122 
COMPS,ioos:station:USF.COMPS:C13:1,2013-12-20T19:05:00Z,26.0630,-83.0730,88.59,1111122 
COMPS,ioos:station:USF.COMPS:C13:1,2013-12-20T19:35:00Z,26.0630,-83.0730,89.23,1111122 
COMPS,ioos:station:USF.COMPS:C13:1,2013-12-20T20:05:00Z,26.0630,-83.0730,88.62,1111122 
COMPS,ioos:station:USF.COMPS:C13:1,2013-12-20T20:35:00Z,26.0630,-83.0730,88.56,1111122 
COMPS,ioos:station:USF.COMPS:C13:1,2013-12-20T21:05:00Z,26.0630,-83.0730,88.51,1111122 
COMPS,ioos:station:USF.COMPS:C13:1,2013-12-20T21:35:00Z,26.0630,-83.0730,88.4,1111122 
COMPS,ioos:station:USF.COMPS:C13:1,2013-12-20T22:05:00Z,26.0630,-83.0730,87.99,1111122 
COMPS,ioos:station:USF.COMPS:C13:1,2013-12-20T22:35:00Z,26.0630,-83.0730,88.01,1111122 
COMPS,ioos:station:USF.COMPS:C13:1,2013-12-20T23:05:00Z,26.0630,-83.0730,87.76,1111122 
COMPS,ioos:station:USF.COMPS:C13:1,2013-12-20T23:35:00Z,26.0630,-83.0730,87.87,1111122 
COMPS,ioos:station:USF.COMPS:C13:1,2013-12-21T00:05:00Z,26.0630,-83.0730,87.07,1111122 
COMPS,ioos:station:USF.COMPS:C13:1,2013-12-21T00:35:00Z,26.0630,-83.0730,87.6,1111122 
COMPS,ioos:station:USF.COMPS:C13:1,2013-12-21T01:05:00Z,26.0630,-83.0730,88.59,1111122 
COMPS,ioos:station:USF.COMPS:C13:1,2013-12-21T01:35:00Z,26.0630,-83.0730,88.26,1111122 
COMPS,ioos:station:USF.COMPS:C13:1,2013-12-21T02:05:00Z,26.0630,-83.0730,87.97,1111122 
COMPS,ioos:station:USF.COMPS:C13:1,2013-12-21T02:35:00Z,26.0630,-83.0730,87.98,1111122 
COMPS,ioos:station:USF.COMPS:C13:1,2013-12-21T03:05:00Z,26.0630,-83.0730,87.04,1111122 
COMPS,ioos:station:USF.COMPS:C13:1,2013-12-21T03:35:00Z,26.0630,-83.0730,87.19,1111122 
COMPS,ioos:station:USF.COMPS:C13:1,2013-12-21T04:05:00Z,26.0630,-83.0730,86.56,1111122 
COMPS,ioos:station:USF.COMPS:C13:1,2013-12-21T04:35:00Z,26.0630,-83.0730,87.37,1111122 
COMPS,ioos:station:USF.COMPS:C13:1,2013-12-21T05:05:00Z,26.0630,-83.0730,89.56,1111122 
COMPS,ioos:station:USF.COMPS:C13:1,2013-12-21T05:35:00Z,26.0630,-83.0730,89.22,1111122 
COMPS,ioos:station:USF.COMPS:C13:1,2013-12-21T06:05:00Z,26.0630,-83.0730,89.27,1111122 
COMPS,ioos:station:USF.COMPS:C13:1,2013-12-21T06:35:00Z,26.0630,-83.0730,89.23,1111122 
COMPS,ioos:station:USF.COMPS:C13:1,2013-12-21T07:05:00Z,26.0630,-83.0730,89.18,1111122 
COMPS,ioos:station:USF.COMPS:C13:1,2013-12-21T07:35:00Z,26.0630,-83.0730,89.55,1111122 
COMPS,ioos:station:USF.COMPS:C13:1,2013-12-21T08:05:00Z,26.0630,-83.0730,90.39,1111122 
COMPS,ioos:station:USF.COMPS:C13:1,2013-12-21T08:35:00Z,26.0630,-83.0730,90.8,1111122 
COMPS,ioos:station:USF.COMPS:C13:1,2013-12-21T09:05:00Z,26.0630,-83.0730,90.92,1111122 
COMPS,ioos:station:USF.COMPS:C13:1,2013-12-21T09:35:00Z,26.0630,-83.0730,91.14,1111122 
COMPS,ioos:station:USF.COMPS:C13:1,2013-12-21T10:05:00Z,26.0630,-83.0730,91.07,1111122 
COMPS,ioos:station:USF.COMPS:C13:1,2013-12-21T10:35:00Z,26.0630,-83.0730,92.22,1111122 
COMPS,ioos:station:USF.COMPS:C13:1,2013-12-21T11:05:00Z,26.0630,-83.0730,91.46,1111122 
COMPS,ioos:station:USF.COMPS:C13:1,2013-12-21T11:35:00Z,26.0630,-83.0730,91.18,1111122 
COMPS,ioos:station:USF.COMPS:C13:1,2013-12-21T12:05:00Z,26.0630,-83.0730,91.35,1111122 
COMPS,ioos:station:USF.COMPS:C13:1,2013-12-21T12:35:00Z,26.0630,-83.0730,90.67,1111122 
COMPS,ioos:station:USF.COMPS:C13:1,2013-12-21T13:05:00Z,26.0630,-83.0730,89.7,1111122 
COMPS,ioos:station:USF.COMPS:C13:1,2013-12-21T13:35:00Z,26.0630,-83.0730,89.61,1111122 
COMPS,ioos:station:USF.COMPS:C13:1,2013-12-21T14:05:00Z,26.0630,-83.0730,89.1,1111122 
COMPS,ioos:station:USF.COMPS:C13:1,2013-12-21T14:35:00Z,26.0630,-83.0730,89.44,1111122 
COMPS,ioos:station:USF.COMPS:C13:1,2013-12-21T15:05:00Z,26.0630,-83.0730,89.94,1111122 
COMPS,ioos:station:USF.COMPS:C13:1,2013-12-21T15:35:00Z,26.0630,-83.0730,90.73,1111122 
COMPS,ioos:station:USF.COMPS:C13:1,2013-12-21T16:05:00Z,26.0630,-83.0730,91.11,1111122 
COMPS,ioos:station:USF.COMPS:C13:1,2013-12-21T16:35:00Z,26.0630,-83.0730,91.52,1111122 
COMPS,ioos:station:USF.COMPS:C13:1,2013-12-21T17:05:00Z,26.0630,-83.0730,91.64,1111122 
COMPS,ioos:station:USF.COMPS:C13:1,2013-12-21T17:35:00Z,26.0630,-83.0730,91.68,1111122 
COMPS,ioos:station:USF.COMPS:C13:1,2013-12-21T18:05:00Z,26.0630,-83.0730,92.06,1111122 
COMPS,ioos:station:USF.COMPS:C13:1,2013-12-21T18:35:00Z,26.0630,-83.0730,92.09,1111122 
COMPS,ioos:station:USF.COMPS:C13:1,2013-12-21T19:05:00Z,26.0630,-83.0730,91.85,1111122 
COMPS,ioos:station:USF.COMPS:C13:1,2013-12-21T19:35:00Z,26.0630,-83.0730,91.88,1111122 
COMPS,ioos:station:USF.COMPS:C13:1,2013-12-21T20:05:00Z,26.0630,-83.0730,91.92,1111122 
COMPS,ioos:station:USF.COMPS:C13:1,2013-12-21T20:35:00Z,26.0630,-83.0730,91.13,1111122 
COMPS,ioos:station:USF.COMPS:C13:1,2013-12-21T21:05:00Z,26.0630,-83.0730,90.61,1111122 
COMPS,ioos:station:USF.COMPS:C13:1,2013-12-21T21:35:00Z,26.0630,-83.0730,90.67,1111122 
COMPS,ioos:station:USF.COMPS:C13:1,2013-12-21T22:05:00Z,26.0630,-83.0730,91.2,1111122 
COMPS,ioos:station:USF.COMPS:C13:1,2013-12-21T22:35:00Z,26.0630,-83.0730,91.67,1111122 
COMPS,ioos:station:USF.COMPS:C13:1,2013-12-21T23:05:00Z,26.0630,-83.0730,92.26,1111122 
COMPS,ioos:station:USF.COMPS:C13:1,2013-12-21T23:35:00Z,26.0630,-83.0730,92.38,1111122 
COMPS,ioos:station:USF.COMPS:C13:1,2013-12-22T00:05:00Z,26.0630,-83.0730,92.21,1111122 
COMPS,ioos:station:USF.COMPS:C13:1,2013-12-22T00:35:00Z,26.0630,-83.0730,91.98,1111122 
COMPS,ioos:station:USF.COMPS:C13:1,2013-12-22T01:05:00Z,26.0630,-83.0730,91.76,1111122 
COMPS,ioos:station:USF.COMPS:C13:1,2013-12-22T01:35:00Z,26.0630,-83.0730,91.66,1111122 